ヘール-ボップ彗星

C/1995 O1 ( Hale-Bopp )

English version
Home page
Total 6,336 html files since Dec. 4, 1995
Updated on December 20, 2007

---------------------------------------------------------------------

・ プロフィール

発見日 1995年7月23日
発見光度 10.5等, 10.8等
発見者 Alan Hale (Cloudcroft, NM), Thomas Bopp (Stanfield, AZ)

・ 写真集

・ 軌道要素

Epoch 1997 Mar. 13.0 TT = JDT 2450520.5
T 1997 Apr. 1.1373 TT                                   Nakano
q   0.914142             (2000.0)            P               Q
z  +0.005395       Peri.  130.5887      -0.1331204      -0.1703043
                   Node   282.4707      +0.2822928      +0.9378055
e   0.995068       Incl.   89.4300      +0.9500472      -0.3025183
From 3000 observations 1993 Apr. 27-2001 Feb. 17, mean residual 0".8.
     Nongravitational parameters A1 = +1.27, A2 = +0.1144.

・ 星図

・ 光度変化

        m1 = -2.0 + 5 logΔ + 10.0 log r  [    ,-215]  (              〜1996年 8月29日)
        m1 = -0.3 + 5 logΔ +  7.5 log r  [-215, -35]  (1996年 8月29日〜1997年 2月25日)
        m1 = -0.7 + 5 logΔ + 16.9 log r  [ -35,   0]  (1997年 2月25日〜1997年 4月 1日)
        m1 = -1.0 + 5 logΔ +  7.9 log r  [   0, 200]  (1997年 4月 1日〜1997年10月18日)
        m1 = -1.3 + 5 logΔ + 10.0 log r  [ 200, 450]  (1997年10月18日〜1998年 6月25日)
        m1 = -2.0 + 5 logΔ + 10.0 log r  [ 450,    ]  (1998年 6月25日〜              )

---------------------------------------------------------------------

軌道要素は中野主一氏の計算によるもので、MPCのEphemerides and Orbital Elementsに掲載されたものです。
星図は StellaNavigator Ver.2.0 for Windows (アストロアーツ 編著 / アスキー出版局刊) で作成したものです。
光度グラフはComet for Windowsで作成したものです。

---------------------------------------------------------------------

Copyright(C) 1995-2008 Seiichi Yoshida (comet@aerith.net). All rights reserved.